This demonstration page uses our WeatherBlox Daily Observations layout. Learn more.

Left ArrowRight Arrow

34.74481, -87.66753

Hourly Observations for December 17, 2017

Temp ( °F °C ) Dew Point ( °F °C ) Humidity (%) Winds ( mph kmh ) Pressure ( in mb ) Visibility ( mi km ) Precip ( " mm )
12:53 am 00:53 Clear 37 2.8 28 -2.2 70 70 ESE 7 11 30.19 1022 10 16 0.00 0.00
1:53 am 01:53 Clear 39 3.9 29 -1.7 67 67 E 7 11 30.16 1022 10 16 0.00 0.00
2:53 am 02:53 Cloudy 40 4.4 30 -1.1 68 68 E 7 11 30.16 1021 10 16 0.00 0.00
3:53 am 03:53 Cloudy 42 5.6 30 -1.1 62 62 ESE 3 6 30.14 1021 10 16 0.00 0.00
4:53 am 04:53 Cloudy 43 6.1 30 -1.1 60 60 NW 7 11 30.21 1023 10 16 0.00 0.00
5:53 am 05:53 Cloudy with Light Rain 42 5.6 34 1.1 73 73 Calm 30.25 1024 10 16 0.01 0.25
6:53 am 06:53 Cloudy with Rain 41 5 37 2.8 86 86 E 6 9 30.22 1023 10 16 0.06 1.52
7:53 am 07:53 Cloudy with Rain 40 4.4 37 2.8 89 89 Calm 30.26 1025 10 16 0.17 4.32
8:53 am 08:53 Cloudy with Light Rain 40 4.4 38 3.3 93 93 E 9 15 30.25 1025 10 16 0.11 2.79
9:34 am 09:34 Cloudy with Light Rain 41 5 38 3.3 89 89 SE 16 26 30.18 1022 10 16 0.05 1.27
9:53 am 09:53 Cloudy with Rain 42 5.6 39 3.9 89 89 SE 13 20 30.19 1022 10 16 0.07 1.78
10:09 am 10:09 Cloudy with Light Rain 43 6.1 40 4.4 89 89 SE 16 26 30.15 1021 10 16 0.02 0.51
10:29 am 10:29 Cloudy with Light Rain 44 6.7 41 5 89 89 SE 20 31 30.12 1020 10 16 0.02 0.51
10:49 am 10:49 Cloudy 45 7 41 5 87 87 SSE 12 19 30.15 1021 10 16 0.02 0.51
10:53 am 10:53 Cloudy 44 6.7 41 5 89 89 SE 10 17 30.14 1021 10 16 0.02 0.51
11:53 am 11:53 Cloudy 47 8.3 43 6.1 86 86 SE 8 13 30.12 1020 10 16 0.00 0.00
12:53 pm 12:53 Cloudy 47 8.3 43 6.1 86 86 Calm 30.10 1019 10 16 0.00 0.00
1:53 pm 13:53 Cloudy 49 9.4 45 7.2 86 86 Calm 30.10 1019 10 16 0.00 0.00
2:53 pm 14:53 Cloudy 50 10 45 7.2 83 83 Calm 30.11 1020 10 16 0.00 0.00
3:53 pm 15:53 Cloudy 49 9.4 45 7.2 86 86 NNE 3 6 30.12 1020 10 16 0.00 0.00
4:53 pm 16:53 Cloudy 48 8.9 45 7.2 89 89 ESE 3 6 30.13 1020 10 16 0.00 0.00
5:10 pm 17:10 Cloudy 48 8.9 45 7.2 89 89 E 5 7 30.12 1020 10 16 0.00 0.00
5:53 pm 17:53 Cloudy 49 9.4 46 7.8 90 90 Calm 30.15 1021 10 16 0.00 0.00
6:53 pm 18:53 Cloudy 48 8.9 45 7.2 89 89 Calm 30.15 1021 10 16 0.00 0.00
7:15 pm 19:15 Cloudy 48 8.9 46 7.8 93 93 Calm 30.15 1021 10 16 0.00 0.00
7:35 pm 19:35 Cloudy 49 9.4 46 7.8 90 90 Calm 30.18 1022 10 16 0.00 0.00
7:53 pm 19:53 Cloudy 48 8.9 45 7.2 89 89 Calm 30.16 1021 10 16 0.00 0.00
8:08 pm 20:08 Cloudy 48 8.9 46 7.8 93 93 SE 3 6 30.15 1021 10 16 0.00 0.00
8:53 pm 20:53 Cloudy 49 9.4 46 7.8 90 90 ESE 3 6 30.15 1021 10 16 0.00 0.00
9:53 pm 21:53 Cloudy 49 9.4 46 7.8 90 90 Calm 30.15 1021 10 16 0.00 0.00
10:53 pm 22:53 Cloudy 49 9.4 46 7.8 90 90 Calm 30.16 1021 10 16 0.00 0.00
11:53 pm 23:53 Cloudy 49 9.4 46 7.8 90 90 Calm 30.15 1021 10 16 0.00 0.00

Powered by AerisWeather